Вернуться в каталог

STARLINK-34962

АктивенСвязьSSO
NORAD 65248·PAYLOAD·🇺🇸 United States

Запущен Aug 18, 2025 с Vandenberg Space Force Base

Loading…

Ближайшие Пролёты (ближайшие 24 часа)

TLE

СвежийSource: CelesTrak SupGP

Эпоха: Sep 14, 2026, 23:13 UTC

1 65248C 25179P   26257.96784722  .00053417  00000+0  16582-2 0  2576
2 65248  97.2832 297.3085 0000986  99.8329 156.9767 15.33412540    15

Отслеживайте STARLINK-34962 в реальном времени с AllMySat

Download on the App Store